Orbital elements:
2017 UP44                                                Earth MOID = 0.0590 AU
Epoch 2017 Sept. 4.0 TT = JDT 2458000.5                 MPC
M 345.40536              (2000.0)            P               Q
n   0.66559500     Peri.  141.97108     +0.97706961     +0.02437821
a   1.2991601      Node   218.31112     -0.05247906     +0.99034914
e   0.2188069      Incl.   19.94994     +0.20635144     +0.13643416
P   1.48           H   23.6           G   0.15           U   7
Residuals in seconds of arc
171030 703  0.1-  0.2-    171030 P93  0.1+  0.1-    171031 850  1.3+  1.3-
171030 703  0.2+  1.0-    171030 K61  0.1+  0.4-    171031 850  0.5-  0.3+
171030 703  0.0   0.8-    171030 K61  0.1-  0.8-    171031 850  0.0   0.9-
171030 703  0.7+  0.8+    171030 K61  0.0   0.7-    171031 850  0.3-  0.2+
171030 703  0.0   0.7+    171030 K61  0.0   0.7-    171031 850  0.4+  0.5+
171030 703  0.1+  0.7-    171030 587  0.2+  0.9-    171031 850  0.1-  0.3+
171030 703  0.1-  0.5-    171030 587  0.3+  1.0-    171031 850 (2.0+  0.4-)
171030 691  0.3-  0.4+    171030 587  0.2+  0.7-    171031 H21  0.0   0.3+
171030 691  0.1-  0.5+    171030 160  0.1-  0.9+    171031 H21  0.1-  0.4+
171030 691  0.4-  0.1+    171030 160  0.6-  0.8+    171031 H21  0.1-  0.3+
171030 H01  0.1+  0.1-    171030 160  0.0   0.4-    171031 H21  0.2-  0.4+
171030 I52  0.0   0.1-    171030 160  0.3-  0.9-    171031 H21  0.0   0.3+
171030 I52  0.1+  0.0     171030 K51  0.2+  0.4+    171031 G96  0.2+  0.5+
171030 I52  0.0   0.1-    171030 160  0.6-  0.8-    171031 G96  0.2+  0.1+
171030 I52  0.0   0.2-    171030 K51  0.8-  0.2+    171031 G96  0.0   0.1+
171030 H01  0.2+  0.1-    171030 K51  0.4-  0.7+    171031 G96  0.3+  0.3+
171030 H01  0.1+  0.1-    171030 104  0.0   0.0     171031 926  0.3-  0.5+
171030 H01  0.2+  0.1-    171030 104  0.3+  0.1+    171031 926  0.2+  0.6+
171030 I52  0.3+  0.1-    171030 104  0.5+  0.2+    171031 926  0.0   0.6+
171030 I52  0.1+  0.1+    171030 C77  0.3+  0.0     171031 K38  0.3-  0.7-
171030 I52  0.5+  0.1+    171030 C77  0.6+  0.2+    171031 K38  0.5-  0.1-
171030 I52  0.3+  0.0     171030 C77  0.1+  0.0     171031 K38  0.3-  0.8-
171030 P93  0.6+  0.4-    171030 K88  0.1+  0.7+    171031 203  0.1+  0.3+
171030 P93  0.4-  0.3-    171030 K88  0.0   0.3+    171031 203  0.2+  0.3-

Ephemeris:
2017 UP44                a,e,i = 1.30, 0.22, 20                  q = 1.0149
Date    TT    R. A. (2000) Decl.     Delta      r     Elong.  Phase     V
2017 10 01    17 55 23.7 +63 46 18   0.1871  1.0157    89.1    80.3    22.8
...
2017 10 16    20 23 51.9 +66 34 02   0.1047  1.0274   104.0    70.3    21.2
...
2017 10 24    23 26 30.9 +53 54 44   0.06851 1.0389   128.7    48.3    19.7
...
2017 10 30    01 07 13.2 +24 05 34   0.05997 1.0498   160.6    18.3    18.5
2017 10 31    01 18 44.1 +18 27 15   0.06109 1.0518   164.5    14.6    18.5
2017 11 01    01 29 03.8 +13 02 32   0.06294 1.0538   166.5    12.7    18.5
...
2017 11 07    02 12 46.8 -11 01 09   0.08559 1.0670   151.4    26.4    19.6
...
2017 11 15    02 43 41.0 -25 11 34   0.1313  1.0867   135.5    39.7    20.9
...
2017 11 30    03 11 41.7 -32 18 05   0.2302  1.1295   123.4    46.8    22.4

A. U. Tomatic                (C) Copyright 2017 MPC           M.P.E.C. 2017-U310



More information about the Iaude mailing list